SXM-8

Last updated on Sun Dec 14 2025 00:02:53 GMT+0000 (Coordinated Universal Time)

1 48838U 21049A 25346.23447676 -.00000196 00000+0 00000+0 0 9991 2 48838 0.0238 33.7230 0004142 11.2586 35.4469 1.00275077 16724
UTC large
Height (km)
Speed (km/s)
/
Latitude / Longitude
Inclination (degrees)
Orbital Period (minutes)
Azimuth
Elevation
Range (km)
Doppler Factor

Next 0 passes for location: London (51.5072 / 0.1276)

Sorry there are no passes over London.